Location: Arundel
(45.9667°N, 74.6189°W)
Time: 09:49:12
(UTC+00:00)

ISS - Visible Passes

Search period start: 08 December 2022 00:00
Search period end: 18 December 2022 00:00
Orbit: 414 x 420 km, 51.6° (Epoch: 08 December)

Date Brightness Start Highest point End Pass type
(mag) Time Alt. Az. Time Alt. Az. Time Alt. Az.
08 Dec -0.7 22:18:32 10° W 22:20:57 19° SW 22:23:20 10° S visible
15 Dec -0.4 11:50:35 10° S 11:52:30 14° SE 11:54:26 10° E visible
17 Dec -1.9 11:49:10 10° SSW 11:52:15 34° SE 11:55:20 10° ENE visible
